Weather History for Memphis, TN

Change the Weather History Date:

Monday, October 3, 2011

  Actual Average Record
Temperature  
Mean Temperature 62 °F 69 °F  
Max Temperature 78 °F 79 °F 93 °F (1954)
Min Temperature 45 °F 58 °F 38 °F (1974)
Degree Days  
Heating Degree Days 3 2  
Month to date heating degree days 12 4  
Since 1 July heating degree days 12 15  
Cooling Degree Days 0 5  
Month to date cooling degree days 0 16  
Year to date cooling degree days 2460 2167  
Growing Degree Days 12 (Base 50)    
Moisture  
Dew Point 41 °F    
Average Humidity 52    
Maximum Humidity 82    
Minimum Humidity 21    
Precipitation  
Precipitation 0.00 in 0.12 in 2.98 in (1883)
Month to date precipitation 0.00 0.36  
Year to date precipitation 40.82 38.83  
Snow  
Snow 0.00 in 0.00 in 0.00 in (2002)
Month to date snowfall 0.0 0.0  
Since 1 July snowfall 0.0 0.0  
Since 1 September snowfall 0.0 0.0  
Snow Depth -    
Sea Level Pressure  
Sea Level Pressure 30.23 in    
Wind  
Wind Speed 1 mph (North)    
Max Wind Speed 9 mph    
Max Gust Speed 12 mph    
Visibility 10 miles    
Events      
T = Trace of Precipitation, MM = Missing Value Source: NWS Daily Summary

Daily Weather History Graph

Daily Weather History Graph

Search for Another Location

Airport:

Trip Planner

Search our weather history database for the weather conditions in past years. The results will help you decide how hot, cold, wet, or windy it might be!

Date:

Astronomy

Oct. 03, 2011 Rise Set
Actual Time 6:56 AM CDT 6:41 PM CDT
Civil Twilight 6:30 AM CDT 7:06 PM CDT
Nautical Twilight 6:01 AM CDT 7:35 PM CDT
Astronomical Twilight 5:31 AM CDT 8:05 PM CDT
Moon 1:42 PM CDT (10/3) 11:55 PM CDT (10/3)
Length of Visible Light 12h 35m
Length of Day
11h 45m
Waxing Crescent, 45% of the Moon is Illuminated
Oct 3
Waxing Crescent
Oct 3
First Quarter
Oct 11
Full
Oct 19
Last Quarter
Oct 26
New

Hourly Weather History & Observations

Time (CDT) Temp. Dew Point Humidity Pressure Visibility Wind Dir Wind Speed Gust Speed Precip Events Conditions
12:54 AM 50.0 °F 39.9 °F 68% 30.21 in 10.0 mi Calm Calm - N/A   Clear
1:54 AM 50.0 °F 41.0 °F 71% 30.21 in 10.0 mi Calm Calm - N/A   Clear
2:54 AM 46.9 °F 39.9 °F 77% 30.21 in 10.0 mi Calm Calm - N/A   Clear
3:54 AM 46.9 °F 39.9 °F 77% 30.22 in 10.0 mi Calm Calm - N/A   Clear
4:54 AM 46.0 °F 41.0 °F 83% 30.22 in 10.0 mi Calm Calm - N/A   Clear
5:54 AM 46.0 °F 41.0 °F 83% 30.23 in 10.0 mi Calm Calm - N/A   Clear
6:54 AM 46.0 °F 41.0 °F 83% 30.25 in 10.0 mi Calm Calm - N/A   Clear
7:54 AM 50.0 °F 44.1 °F 80% 30.27 in 10.0 mi Calm Calm - N/A   Clear
8:54 AM 57.9 °F 44.1 °F 60% 30.29 in 10.0 mi Calm Calm - N/A   Clear
9:54 AM 64.0 °F 39.9 °F 41% 30.29 in 10.0 mi Calm Calm - N/A   Clear
10:54 AM 69.1 °F 39.9 °F 35% 30.29 in 10.0 mi Calm Calm - N/A   Clear
11:54 AM 71.1 °F 37.9 °F 30% 30.28 in 10.0 mi Calm Calm - N/A   Clear
12:54 PM 73.4 °F 37.4 °F 27% 30.26 in 10.0 mi Variable 3.5 mph - N/A   Clear
1:54 PM 75.0 °F 37.9 °F 26% 30.22 in 10.0 mi Variable 3.5 mph - N/A   Clear
2:54 PM 77.0 °F 39.0 °F 25% 30.21 in 10.0 mi North 8.1 mph - N/A   Clear
3:54 PM 77.0 °F 36.0 °F 23% 30.20 in 10.0 mi Calm Calm - N/A   Clear
4:54 PM 75.9 °F 33.1 °F 21% 30.20 in 10.0 mi North 4.6 mph - N/A   Partly Cloudy
5:54 PM 73.9 °F 37.0 °F 26% 30.19 in 10.0 mi North 5.8 mph - N/A   Partly Cloudy
6:54 PM 68.0 °F 39.0 °F 35% 30.19 in 10.0 mi North 3.5 mph - N/A   Partly Cloudy
7:54 PM 63.0 °F 43.0 °F 48% 30.20 in 10.0 mi Calm Calm - N/A   Clear
8:54 PM 61.0 °F 45.0 °F 56% 30.20 in 10.0 mi Calm Calm - N/A   Clear
9:54 PM 57.9 °F 45.0 °F 62% 30.21 in 10.0 mi Calm Calm - N/A   Clear
10:54 PM 57.0 °F 46.0 °F 67% 30.22 in 10.0 mi Calm Calm - N/A   Clear
11:54 PM 54.0 °F 46.0 °F 75% 30.22 in 10.0 mi Calm Calm - N/A   Clear